(72255) = 2001 AZ31

Discovered at Socorro on 2001-01-04 by LINEAR.

Orbit

Orbit type: Main Belt

Note: WebGL enabled browser required.

epoch2023-09-13.0
epoch JD2460200.5
perihelion date2021-02-12.67123
perihelion JD2459258.17123
argument of perihelion (°)39.11333
ascending node (°)333.31518
inclination (°)5.31797
eccentricity0.1070452
perihelion distance (AU)2.0487859
Tisserand w.r.t. Jupiter3.6
ΔV w.r.t. Earth (km/sec)9.0
semimajor axis (AU)2.2943893
mean anomaly (°)267.24257
mean daily motion (°/day)0.28359800
aphelion distance (AU)2.540
period (years)3.48
P-vector [x]0.97534587
P-vector [y]0.17197778
P-vector [z]0.13828986
Q-vector [x]-0.21672109
Q-vector [y]0.86463816
Q-vector [z]0.45324699
absolute magnitude15.95
phase slope0.15
uncertainty0
referenceMPEC 2024-A26
observations used1196
oppositions18
arc length (days)9241
first opposition used1998
last opposition used2023
residual rms (arc-secs)0.66
perturbers coarse indicatorM-v
perturbers precise indicator003Ek
first observation date used1998-03-03.0
last observation date used2023-06-21.0
computer nameMPCLINUX
JD of orbit computation2456523.323855
perihelion JD uncertainty (days)6.2920E-05
argument of perihelion uncertainty (°)4.4126E-05
ascending node uncertainty (°)4.0865E-05
inclination uncertainty (°)4.8446E-06
eccentricity uncertainty 5.1539E-08
perihelion distance uncertainty (AU)1.2235E-07
Minimum Orbit Intersection Distances (in AU)
for orbit epoch: 2460000.5, reference: E2023-M85
Mercury1.69447
Venus1.33024
Earth1.04992
Mars0.6369
Jupiter2.90936
Saturn6.77766
Uranus15.9254
Neptune27.8062

Observations

1222 total observations over interval: 1998 03 03.18386 – 2023 06 21.345078
These data are available for download (format description).

Date (UT) J2000 RA J2000 Dec Magn Location Ref
1998 03 03.18386 10 50 19.45 +06 00 10.8 19.1   704 – Lincoln Laboratory ETS, New Mexico MPS 54587
1998 03 03.20440 10 50 18.09 +06 00 15.7 19.2   704 – Lincoln Laboratory ETS, New Mexico MPS 54587
1998 03 03.22479 10 50 16.89 +06 00 20.4 19.6   704 – Lincoln Laboratory ETS, New Mexico MPS 54587
1998 03 03.24539 10 50 15.53 +06 00 25.5 19.1   704 – Lincoln Laboratory ETS, New Mexico MPS 54587
1998 03 03.26567 10 50 14.29 +06 00 30.0 19.0   704 – Lincoln Laboratory ETS, New Mexico MPS 54587
2000 12 20.29138 07 08 06.25 +30 15 02.7 18.1   704 – Lincoln Laboratory ETS, New Mexico MPS 25596
2000 12 20.30640 07 08 05.23 +30 15 03.8 19.0   704 – Lincoln Laboratory ETS, New Mexico MPS 25596
2000 12 20.32166 07 08 04.12 +30 15 05.6 18.5   704 – Lincoln Laboratory ETS, New Mexico MPS 25596
2001 01 04.30090 06 49 37.98 +30 18 33.1 18.4   704 – Lincoln Laboratory ETS, New Mexico MPS 25596
2001 01 04.31602 06 49 36.77 +30 18 32.6 18.9   704 – Lincoln Laboratory ETS, New Mexico MPS 25596
2001 01 04.33113 06 49 35.66 +30 18 31.3 18.5   704 – Lincoln Laboratory ETS, New Mexico MPS 25596
2001 01 04.34625 06 49 34.43 +30 18 30.5 18.4   704 – Lincoln Laboratory ETS, New Mexico MPS 25596
2001 01 04.36136 06 49 33.32 +30 18 29.9 18.4   704 – Lincoln Laboratory ETS, New Mexico MPS 25596
2001 01 06.24496 06 47 13.12 +30 16 45.0 18.5   704 – Lincoln Laboratory ETS, New Mexico MPS 25596
2001 01 06.26001 06 47 12.00 +30 16 44.7 18.4   704 – Lincoln Laboratory ETS, New Mexico MPS 25596
2001 01 06.27508 06 47 10.83 +30 16 42.8 18.5   704 – Lincoln Laboratory ETS, New Mexico MPS 25596
2001 01 19.25414 06 32 37.88 +29 52 06.5 18.3   704 – Lincoln Laboratory ETS, New Mexico MPS 25596
2001 01 19.26938 06 32 36.97 +29 52 03.7 18.4   704 – Lincoln Laboratory ETS, New Mexico MPS 25596
2001 01 19.28462 06 32 36.04 +29 52 02.0 18.3   704 – Lincoln Laboratory ETS, New Mexico MPS 25596
2001 01 19.30037 06 32 35.08 +29 51 59.4 18.3   704 – Lincoln Laboratory ETS, New Mexico MPS 25596
2001 01 19.31572 06 32 34.15 +29 51 56.5 18.5   704 – Lincoln Laboratory ETS, New Mexico MPS 25596
2002 05 01.34900 14 17 55.83 -22 26 12.3 19.9   644 – Palomar Mountain/NEAT MPS 54587
2002 05 01.35953 14 17 55.12 -22 26 10.6 19.7   644 – Palomar Mountain/NEAT MPS 54587
2002 05 01.36987 14 17 54.43 -22 26 07.6 19.2   644 – Palomar Mountain/NEAT MPS 54587
2002 05 04.28547 14 14 48.28 -22 13 24.7 18.4 R 699 – Lowell Observatory-LONEOS MPS 54587
2002 05 04.30062 14 14 47.31 -22 13 20.6   699 – Lowell Observatory-LONEOS MPS 54587
2002 05 04.31580 14 14 46.22 -22 13 16.7   699 – Lowell Observatory-LONEOS MPS 54587
2002 05 04.33098 14 14 45.19 -22 13 13.6   699 – Lowell Observatory-LONEOS MPS 54587
2002 05 10.19374 14 08 43.48 -21 45 25.9 19.4   644 – Palomar Mountain/NEAT MPS 54587
2002 05 10.21529 14 08 42.17 -21 45 19.6 19.3   644 – Palomar Mountain/NEAT MPS 54587
2002 05 10.23744 14 08 40.78 -21 45 13.5 19.2   644 – Palomar Mountain/NEAT MPS 54587
2002 05 17.30787 14 02 04.28 -21 09 36.6 19.5   644 – Palomar Mountain/NEAT MPS 54587
2002 05 17.32590 14 02 03.32 -21 09 31.0 19.6   644 – Palomar Mountain/NEAT MPS 54587
2002 05 17.35994 14 02 01.45 -21 09 20.7 20.1   644 – Palomar Mountain/NEAT MPS 54587
2003 08 22.55547 01 20 11.70 +12 28 59.1 20.0   608 – Haleakala-AMOS MPS 83299
2003 08 22.56603 01 20 11.79 +12 29 02.5 20.0   608 – Haleakala-AMOS MPS 83299
2003 08 22.57645 01 20 11.89 +12 29 05.8 19.9   608 – Haleakala-AMOS MPS 83299
2003 08 24.33436 01 20 24.70 +12 38 32.9 19.2   704 – Lincoln Laboratory ETS, New Mexico MPS 83299
2003 08 24.34710 01 20 24.79 +12 38 37.1 19.9   704 – Lincoln Laboratory ETS, New Mexico MPS 83299
2003 08 24.35973 01 20 24.71 +12 38 41.6 19.6   704 – Lincoln Laboratory ETS, New Mexico MPS 83299
2003 08 24.37285 01 20 24.76 +12 38 46.2 19.2   704 – Lincoln Laboratory ETS, New Mexico MPS 83299
2003 08 24.38564 01 20 24.81 +12 38 50.7 19.8   704 – Lincoln Laboratory ETS, New Mexico MPS 83299
2003 08 28.32263 01 20 30.54 +12 58 13.2 19.3   704 – Lincoln Laboratory ETS, New Mexico MPS 83299
2003 08 28.34880 01 20 30.48 +12 58 19.9 19.7   704 – Lincoln Laboratory ETS, New Mexico MPS 83299
2003 08 28.36095 01 20 30.35 +12 58 22.2 19.9   704 – Lincoln Laboratory ETS, New Mexico MPS 83299
2003 08 28.37396 01 20 30.31 +12 58 27.6 19.2   704 – Lincoln Laboratory ETS, New Mexico MPS 83299
2003 09 04.31671 01 19 23.36 +13 25 57.2 19.1   704 – Lincoln Laboratory ETS, New Mexico MPS 83995
2003 09 04.32924 01 19 23.12 +13 26 00.0 19.8   704 – Lincoln Laboratory ETS, New Mexico MPS 83995
2003 09 04.34175 01 19 22.85 +13 26 02.4 19.4   704 – Lincoln Laboratory ETS, New Mexico MPS 83995
2003 09 04.35434 01 19 22.63 +13 26 05.5 19.7   704 – Lincoln Laboratory ETS, New Mexico MPS 83995
2003 09 04.36701 01 19 22.33 +13 26 07.8 19.3   704 – Lincoln Laboratory ETS, New Mexico MPS 83995
2003 09 09.54530 01 17 28.31 +13 40 44.6 19.8   608 – Haleakala-AMOS MPS 84497
2003 09 09.55628 01 17 27.98 +13 40 46.6 19.6   608 – Haleakala-AMOS MPS 84497
2003 09 09.56767 01 17 27.63 +13 40 48.3 18.9   608 – Haleakala-AMOS MPS 84497
2003 09 17.30872 01 13 01.13 +13 52 36.2 17.9   644 – Palomar Mountain/NEAT MPS 86142
2003 09 17.32743 01 13 00.29 +13 52 37.1 18.0   644 – Palomar Mountain/NEAT MPS 86142
2003 09 17.36145 01 12 58.79 +13 52 38.6 18.0   644 – Palomar Mountain/NEAT MPS 86142
2003 09 19.26862 01 11 36.63 +13 53 36.7 17.9   644 – Palomar Mountain/NEAT MPS 85134
2003 09 19.33094 01 11 33.70 +13 53 38.1 17.8   644 – Palomar Mountain/NEAT MPS 85134
2003 09 19.38333 01 11 31.15 +13 53 38.9 18.1 R 699 – Lowell Observatory-LONEOS MPS 85134
2003 09 19.39359 01 11 30.71 +13 53 39.2 17.8   644 – Palomar Mountain/NEAT MPS 85134
2003 09 19.39658 01 11 30.53 +13 53 39.0   699 – Lowell Observatory-LONEOS MPS 85134
2003 09 19.40994 01 11 29.87 +13 53 39.3   699 – Lowell Observatory-LONEOS MPS 85134
2003 09 19.42317 01 11 29.24 +13 53 39.8   699 – Lowell Observatory-LONEOS MPS 85134
2003 09 20.33672 01 10 48.05 +13 53 50.6 19.0   608 – Haleakala-AMOS MPS 85134
2003 09 20.34710 01 10 47.56 +13 53 50.2 19.1   608 – Haleakala-AMOS MPS 85134
2003 09 20.35797 01 10 47.02 +13 53 50.7 19.0   608 – Haleakala-AMOS MPS 85134
2003 09 20.99734 01 10 16.63 +13 53 49.3 17.8 R 599 – Campo Imperatore-CINEOS MPS 85134
2003 09 21.00905 01 10 16.13 +13 53 48.5 17.4 R 599 – Campo Imperatore-CINEOS MPS 85134
2003 09 21.02079 01 10 15.47 +13 53 49.3 17.8 R 599 – Campo Imperatore-CINEOS MPS 85134
2003 09 21.03259 01 10 14.87 +13 53 49.2 17.8 R 599 – Campo Imperatore-CINEOS MPS 85134
2003 09 21.31644 01 10 01.48 +13 53 48.8 18.6   704 – Lincoln Laboratory ETS, New Mexico MPS 85134
2003 09 21.32850 01 10 00.83 +13 53 49.1 18.6   704 – Lincoln Laboratory ETS, New Mexico MPS 85134
2003 09 21.34083 01 10 00.21 +13 53 48.3 18.6   704 – Lincoln Laboratory ETS, New Mexico MPS 85134
2003 09 21.35306 01 09 59.67 +13 53 46.9 19.6   704 – Lincoln Laboratory ETS, New Mexico MPS 85134
2003 09 21.36586 01 09 58.90 +13 53 48.0 19.2   704 – Lincoln Laboratory ETS, New Mexico MPS 85134
2003 09 27.23777 01 04 53.87 +13 49 30.2 18.7   704 – Lincoln Laboratory ETS, New Mexico MPS 86142
2003 09 27.25091 01 04 53.08 +13 49 28.9 18.6   704 – Lincoln Laboratory ETS, New Mexico MPS 86142
2003 09 27.26398 01 04 52.28 +13 49 27.8 18.8   704 – Lincoln Laboratory ETS, New Mexico MPS 86142
2003 09 27.27685 01 04 51.53 +13 49 26.8 19.1   704 – Lincoln Laboratory ETS, New Mexico MPS 86142
2003 09 27.28995 01 04 50.79 +13 49 26.1 18.9   704 – Lincoln Laboratory ETS, New Mexico MPS 86142
2003 10 16.75638 00 45 28.23 +12 53 40.8 17.6 R 599 – Campo Imperatore-CINEOS MPS 87864
2003 10 16.76721 00 45 27.61 +12 53 38.3 17.8 R 599 – Campo Imperatore-CINEOS MPS 87864
2003 10 16.77830 00 45 26.91 +12 53 35.6 18.2 R 599 – Campo Imperatore-CINEOS MPS 87864
2003 10 17.26863 00 44 58.34 +12 51 40.3 17.6 R 699 – Lowell Observatory-LONEOS MPS 87864
2003 10 17.28340 00 44 57.42 +12 51 36.5   699 – Lowell Observatory-LONEOS MPS 87864
2003 10 17.29828 00 44 56.55 +12 51 33.3   699 – Lowell Observatory-LONEOS MPS 87864
2003 10 17.31325 00 44 55.66 +12 51 29.5   699 – Lowell Observatory-LONEOS MPS 87864
2003 10 20.25935 00 42 11.01 +12 39 35.8 17.7   644 – Palomar Mountain/NEAT MPS 87864
